SCP
0 0 0 0 0 0 0 0 0 -0 -0 0 -0 -0 -0 0 0 0 0 -0 0 0 0 0 0 0 0 0 0 0 0 0 0 0 0 0 0 0 -0 0 -0 0 0
0 0 0 0 0 0 0 0 0 0 0 -0 0 -0 -0 -0 -0 0 0 -0 0 0 0 -0 -0 -0 0 0 0 -0 0 0 0 0 0 -0 -0 0 0 -0 -0 -0 -0
0 0 0 0 0 0 0 0 0 0 -0 0 -0 -0 -0 -0 0 0 0 0 0 0 0 -0 -0 0 -0 0 -0 -0 0 0 0 0 0 0 0 0 0 -0 -0 -0 0
0 0 0 0 0 0 0 0 0 0 0 0 0 -0 -0 -0 0 0 0 0 0 0 -0 -0 -0 0 -0 -0 0 -0 0 0 0 0 0 0 0 0 0 0 0 0 0
0 0 0 0 0 0 0 0 0 0 0 0 0 0 0 -0 0 0 0 0 0 0 0 -0 -0 -0 0 -0 0 0 0 0 0 0 0 0 0 0 0 0 0 0 0
0 0 0 0 0 0 0 0 0 0 0 0 0 0 0 0 0 0 0 0 0 0 0 0 0 0 0 0 0 0 0 0 0 0 0 0 0 0 0 0 0 0 0
0 0 0 0 0 0 0 0 0 0 0 0 0 0 0 0 0 0 0 0 0 0 0 0 0 0 0 0 0 0 0 0 0 0 0 0 0 0 0 0 0 0 0
0 0 0 0 0 0 0 0 0 0 0 0 0 0 0 0 0 0 0 0 0 0 0 0 0 0 0 0 0 0 0 0 0 0 0 0 0 0 0 0 0 0 0
0 0 0 0 0 0 0 0 0 0 0 0 0 0 0 0 0 0 0 0 0 0 0 0 0 0 0 0 0 0 0 0 0 0 0 0 0 0 0 0 0 0 0
0 0 0 0 0 0 0 0 0 0 0 0 0 0 0 0 0 0 0 0 0 0 0 0 0 0 0 0 0 0 0 0 0 0 0 0 0 0 0 0 0 0 0
0 0 0 0 0 0 0 0 0 0 0 0 0 0 0 0 0 0 0 0 0 0 0 0 0 0 0 0 0 0 0 0 0 0 0 0 0 0 0 0 0 0 0
0 0 0 0 0 0 0 0 0 0 0 0 -0 0 0 0 0 0 0 0 0 0 0 0 0 0 0 0 0 0 0 0 0 0 0 0 0 0 0 0 0 0 0
0 0 0 0 0 0 -0 0 0 0 0 0 0 0 -0 0 0 0 0 0 0 0 0 0 0 0 0 0 0 0 0 0 0 0 0 0 0 0 0 0 0 0 -0
0 0 0 0 -0 0 0 -0 0 0 0 0 0 0 0 -0 0 0 0 0 0 0 0 0 0 0 0 0 0 0 0 0 0 0 0 0 0 0 0 0 0 0 0
0 0 0 -0 0 0 0 0 -0 -0 0 0 0 0 0 0 0 0 0 0 0 0 0 0 0 0 0 0 0 0 -0 0 0 0 0 0 0 0 0 0 0 0 0
0 -0 -0 0 0 0 0 0 0 -0 -0 -0 0 0 0 0 0 0 0 0 0 0 0 0 0 0 0 0 0 0 0 0 0 0 0 0 0 0 0 0 0 0 0
0 0 0 0 0 0 0 0 0 0 0 -0 -0 0 0 0 0 0 0 0 0 0 0 0 0 0 0 0 0 0 0 0 0 0 0 0 0 0 0 0 0 0 0
-0 -0 0 0 0 0 -0 -0 -0 0 0 0 0 0 0 0 0 0 0 0 0 0 0 0 0 0 0 0 0 0 0 0 0 0 0 0 0 0 0 0 0 0 0
-0 0 0 0 0 0 0 -0 -0 -0 -0 0 0 0 0 -0 -0 -0 -0 0 0 0 0 0 0 0 0 0 0 0 0 0 0 0 0 0 0 0 0 0 0 0 0
0 -0 0 0 0 -0 -0 -0 -0 -0 -0 -0 0 -0 0 -0 -0 -0 -0 -0 -0 -0 0 0 0 0 0 0 0 0 0 0 0 0 0 0 0 0 0 0 0 0 0
0 0 -0 0 -0 0 0 -0 -0 -0 -0 -0 0 -0 0 0 0 0 -0 -0 -0 0 0 0 0 0 0 0 0 0 0 0 0 0 0 0 0 0 0 0 0 0 0
0 0 -0 -0 -0 -0 -0 0 -0 -0 -0 -0 -0 -0 0 -0 0 -0 0 0 0 0 0 0 0 0 0 0 0 0 0 0 0 0 0 0 0 0 0 0 0 0 0
0 -0 -0 -0 -0 -0 -0 -0 -0 -0 0 -0 0 0 0 0 0 0 0 0 0 0 0 0 0 0 0 0 0 0 0 0 0 0 0 0 0 0 0 0 0 0 0
0 0 0 0 0 -0 -0 -0 -0 -0 -0 0 0 0 0 0 0 0 0 0 0 0 0 0 0 0 0 0 0 0 0 0 0 0 0 0 0 0 0 0 0 0 0
0 0 0 0 0 0 -0 -0 0 -0 0 0 0 0 0 0 0 0 0 0 0 0 0 0 0 0 0 0 0 0 0 0 0 0 0 0 0 0 0 0 0 0 0
0 0 -0 0 0 0 -0 -0 -0 -0 0 0 0 0 0 0 0 0 0 0 0 0 0 0 0 0 0 0 0 0 0 0 0 0 0 0 0 0 0 0 0 0 0
Wind_Speed_500mb
35 40 48 47 31 32 38 30 26 17 18 21 21 22 22 12 13 18 24 23 23 25 22 18 19 19 10 5 7 11 5 3 9 19 25 24 22 26 22 5 13 15 15
31 42 41 39 38 35 38 29 23 20 17 17 14 13 15 15 13 14 7 8 12 18 21 17 7 2 8 13 10 10 6 12 16 21 14 21 22 17 8 14 13 7 13
37 49 37 36 33 32 36 31 29 23 16 17 18 18 17 15 8 5 5 5 7 4 9 10 14 10 13 15 14 12 10 17 15 16 18 21 19 14 11 14 12 8 11
37 40 50 42 38 38 36 29 23 23 21 22 20 14 16 17 11 10 7 4 3 5 5 6 10 18 14 8 9 11 11 8 13 18 18 18 20 16 19 23 19 19 22
34 41 37 40 41 38 32 28 25 23 20 18 16 18 16 16 17 7 12 8 8 8 8 14 17 15 16 17 16 16 15 10 17 20 20 12 14 17 18 17 20 20 15
35 39 41 34 38 38 39 42 36 34 26 16 15 19 14 16 17 13 10 4 11 11 6 13 21 21 22 23 27 24 17 18 17 21 23 21 20 17 19 21 19 23 18
33 30 35 39 41 27 25 31 33 32 29 30 30 27 25 24 23 23 28 22 23 27 19 22 19 21 22 24 28 29 33 28 28 28 25 23 20 24 30 21 28 26 16
34 30 31 35 29 30 31 32 33 33 37 37 38 35 30 35 35 33 36 34 29 29 28 32 28 27 27 27 23 25 24 30 31 30 27 20 17 18 22 28 26 26 13
27 24 33 35 34 31 39 32 33 37 40 45 38 39 32 34 31 34 39 44 45 47 38 36 31 26 25 26 23 20 21 22 20 17 21 9 15 19 24 28 26 28 24
20 19 25 32 27 32 33 33 30 25 27 28 44 53 36 35 32 32 36 35 23 21 34 32 30 31 32 32 32 26 21 23 25 19 20 21 15 29 18 22 27 24 25
15 15 17 21 25 29 34 38 38 33 35 31 33 40 44 40 36 34 35 35 31 20 21 23 27 29 32 32 30 29 30 29 34 32 29 32 22 23 27 31 34 31 27
14 15 18 24 21 33 36 33 37 40 37 34 32 31 30 29 27 27 29 28 25 24 18 22 24 25 23 26 28 31 34 32 39 29 31 33 32 26 22 26 37 37 35
17 22 21 20 31 26 31 29 22 26 27 31 28 24 21 22 18 17 20 22 16 14 12 13 17 17 24 26 30 28 29 33 38 40 39 40 40 34 26 35 35 34 34
11 15 17 25 22 26 19 35 31 19 18 15 22 17 17 17 19 17 17 12 12 13 19 18 27 33 29 33 30 32 33 28 29 42 39 37 37 42 38 41 36 37 34
12 13 14 11 12 21 24 23 36 39 27 20 17 17 19 19 20 15 11 11 13 24 26 27 23 26 28 28 31 33 40 35 35 41 39 39 37 43 42 42 39 40 38
15 9 10 15 18 13 19 12 19 28 33 36 29 23 21 19 19 20 19 9 13 20 26 24 25 26 29 29 34 30 39 37 38 40 39 42 36 44 42 41 41 41 35
10 15 25 19 22 24 18 12 13 20 20 30 40 33 37 28 17 23 24 23 19 24 21 23 25 26 29 27 31 32 37 38 32 39 40 41 35 44 43 41 43 38 37
17 13 20 18 22 24 15 14 14 21 23 25 31 30 31 32 34 14 22 22 19 19 22 22 23 26 27 28 28 31 36 35 34 35 37 39 36 41 41 41 43 41 39
18 11 10 19 17 8 16 14 14 14 13 11 18 19 15 19 25 28 21 20 19 18 21 25 23 25 25 26 28 30 32 32 33 32 38 39 40 41 41 40 38 40 40
9 11 16 20 20 13 13 14 14 15 13 12 18 38 12 22 18 16 20 19 19 19 17 24 23 22 24 25 27 29 26 25 25 27 38 40 43 35 39 38 39 39 38
17 22 30 21 13 12 13 12 13 14 14 15 15 28 18 21 17 17 16 17 18 19 19 22 20 19 20 23 24 25 25 25 18 17 30 39 39 33 39 35 38 36 38
21 27 14 10 11 12 11 11 12 13 13 12 16 18 21 18 13 14 13 15 14 16 16 15 17 17 15 17 16 25 28 30 27 22 21 33 37 29 38 35 36 37 39
26 25 11 6 11 16 9 13 10 13 11 11 9 9 10 12 12 11 13 12 14 14 15 14 15 18 19 17 20 26 28 30 29 21 22 30 35 32 33 35 34 35 35
22 21 14 15 4 9 9 10 11 12 10 10 11 9 8 8 10 12 9 10 9 13 12 15 15 19 25 24 25 26 26 25 22 21 22 27 34 40 25 34 31 33 35
26 22 16 17 17 12 13 12 12 12 11 11 9 8 7 7 8 9 10 6 9 9 11 14 18 18 25 27 27 26 24 22 18 17 21 27 24 32 23 30 29 30 32
28 24 19 18 20 16 16 13 13 12 11 11 10 9 8 6 8 8 9 11 2 9 9 12 13 26 27 28 26 25 24 21 15 16 22 27 30 21 30 28 26 27 29
Wind_Direction_500mb
356 352 350 352 6 1 359 2 14 26 53 67 50 36 40 47 39 37 38 36 48 46 52 58 57 39 32 357 325 300 334 284 304 294 313 333 328 324 337 56 103 63 40
2 359 1 11 17 11 9 21 34 39 51 42 43 30 23 32 25 38 37 37 30 31 20 29 83 23 342 356 346 7 319 318 341 346 354 357 355 354 66 79 82 41 317
358 8 11 15 12 16 23 26 36 47 44 39 17 27 27 9 347 66 39 350 9 37 11 350 356 352 331 332 357 3 358 20 48 43 10 1 38 69 76 60 26 350 346
4 12 21 21 17 28 23 24 33 34 42 36 34 16 37 359 16 102 81 61 47 11 353 324 330 339 336 342 12 39 55 65 28 14 17 34 49 47 31 20 11 352 357
17 23 27 30 22 32 31 34 32 36 39 48 48 44 57 12 46 64 78 92 112 103 47 19 13 31 62 65 69 63 70 37 14 21 21 28 5 352 358 335 336 337 310
14 8 17 21 17 38 50 49 47 40 35 35 47 42 35 38 45 58 74 56 89 96 60 60 67 62 72 67 54 41 35 40 55 41 38 31 28 17 3 356 352 357 338
11 18 9 24 30 28 22 40 40 45 53 57 59 58 50 55 59 68 76 76 85 91 74 71 62 63 66 71 64 50 53 53 49 42 32 22 27 19 15 12 4 0 347
17 13 17 19 16 31 32 33 50 62 55 55 49 49 64 65 70 87 89 81 73 67 66 72 61 74 62 59 66 62 30 23 27 23 11 4 16 4 7 10 360 1 21
15 16 31 39 38 49 62 68 72 60 39 36 45 46 80 73 73 80 80 76 66 59 57 68 78 72 54 50 54 57 38 20 358 32 50 13 34 8 8 8 10 8 4
20 34 54 39 42 59 55 36 26 27 37 46 52 62 72 72 69 61 59 61 56 60 47 52 51 47 45 45 40 37 30 11 37 26 19 1 350 14 342 355 360 345 348
12 25 21 38 50 56 55 48 44 43 64 70 72 64 60 59 66 60 52 54 64 80 65 31 51 51 48 45 36 28 13 13 19 14 13 354 7 352 354 5 348 333 334
61 26 42 65 56 47 31 39 49 49 50 56 68 65 48 51 55 73 75 75 67 59 58 56 57 45 30 29 32 24 22 16 6 354 357 9 6 353 349 3 355 348 341
63 64 48 56 46 51 25 36 53 51 51 60 58 57 39 54 44 64 72 79 65 60 35 8 4 10 21 20 31 28 19 7 5 11 12 12 10 16 8 1 355 349 351
43 50 54 52 66 56 36 36 37 36 49 48 40 57 49 9 31 40 51 65 57 26 6 21 35 34 36 30 23 24 16 359 8 14 9 6 6 12 8 8 11 7 356
59 44 29 16 349 338 3 32 47 42 40 32 18 6 6 6 6 9 38 54 43 24 31 39 30 29 27 24 20 21 12 12 23 15 14 10 9 9 9 10 10 9 6
24 45 44 14 4 340 323 7 36 37 36 31 28 22 22 21 35 54 53 50 53 27 38 32 31 29 26 21 19 16 16 17 18 17 14 12 9 9 11 12 11 9 7
39 13 355 346 339 349 330 301 346 14 17 23 21 43 41 38 58 67 52 55 57 44 36 34 31 26 23 18 19 14 17 11 15 17 16 12 10 12 12 11 12 8 12
20 347 341 2 345 4 26 24 25 13 8 9 11 21 38 35 39 62 60 47 40 44 35 30 28 23 20 15 15 14 17 7 10 20 17 10 10 11 10 11 11 12 17
334 345 317 317 329 334 11 14 15 11 9 7 350 3 7 17 28 28 26 43 34 35 43 27 24 22 14 11 12 16 14 7 10 18 16 13 9 12 10 11 9 10 11
337 21 353 340 352 13 2 0 0 2 4 349 345 14 60 60 24 21 20 32 34 28 53 39 18 19 13 11 16 7 356 356 8 17 16 12 4 13 10 8 10 10 12
292 311 312 337 20 352 349 352 355 359 1 3 347 10 50 46 21 19 24 24 27 26 36 44 16 13 15 11 13 348 333 350 2 26 22 12 4 9 10 6 10 10 9
300 307 332 337 340 346 346 356 354 356 0 1 353 358 24 30 12 10 17 21 24 23 22 32 23 1 17 359 0 346 3 6 6 27 39 28 0 6 12 5 10 10 8
314 326 325 340 338 308 338 347 348 354 352 353 356 353 359 1 4 9 5 18 11 13 15 16 19 351 359 353 359 357 6 9 13 32 22 30 4 357 14 6 11 10 10
311 314 326 339 305 335 336 323 333 349 359 346 347 349 348 357 353 353 0 4 19 359 11 351 6 355 350 6 5 5 5 9 20 42 34 23 13 348 22 10 13 11 8
299 285 310 304 325 321 314 321 320 328 327 331 332 330 331 344 336 336 332 1 358 354 358 348 349 332 340 3 2 3 4 8 21 34 28 23 7 349 22 14 12 10 10
290 290 286 279 306 302 309 301 308 310 312 320 321 321 322 326 318 317 316 309 26 339 355 337 349 319 346 354 357 359 2 8 27 38 32 14 355 4 13 17 12 15 12
Wind_Speed_850mb
35 40 48 47 31 32 38 30 26 17 18 21 21 22 22 12 13 18 24 23 23 25 22 18 19 19 10 5 7 11 5 3 9 19 25 24 22 26 22 5 13 15 15
31 42 41 39 38 35 38 29 23 20 17 17 14 13 15 15 13 14 7 8 12 18 21 17 7 2 8 13 10 10 6 12 16 21 14 21 22 17 8 14 13 7 13
37 49 37 36 33 32 36 31 29 23 16 17 18 18 17 15 8 5 5 5 7 4 9 10 14 10 13 15 14 12 10 17 15 16 18 21 19 14 11 14 12 8 11
37 40 50 42 38 38 36 29 23 23 21 22 20 14 16 17 11 10 7 4 3 5 5 6 10 18 14 8 9 11 11 8 13 18 18 18 20 16 19 23 19 19 22
34 41 37 40 41 38 32 28 25 23 20 18 16 18 16 16 17 7 12 8 8 8 8 14 17 15 16 17 16 16 15 10 17 20 20 12 14 17 18 17 20 20 15
35 39 41 34 38 38 39 42 36 34 26 16 15 19 14 16 17 13 10 4 11 11 6 13 21 21 22 23 27 24 17 18 17 21 23 21 20 17 19 21 19 23 18
33 30 35 39 41 27 25 31 33 32 29 30 30 27 25 24 23 23 28 22 23 27 19 22 19 21 22 24 28 29 33 28 28 28 25 23 20 24 30 21 28 26 16
34 30 31 35 29 30 31 32 33 33 37 37 38 35 30 35 35 33 36 34 29 29 28 32 28 27 27 27 23 25 24 30 31 30 27 20 17 18 22 28 26 26 13
27 24 33 35 34 31 39 32 33 37 40 45 38 39 32 34 31 34 39 44 45 47 38 36 31 26 25 26 23 20 21 22 20 17 21 9 15 19 24 28 26 28 24
20 19 25 32 27 32 33 33 30 25 27 28 44 53 36 35 32 32 36 35 23 21 34 32 30 31 32 32 32 26 21 23 25 19 20 21 15 29 18 22 27 24 25
15 15 17 21 25 29 34 38 38 33 35 31 33 40 44 40 36 34 35 35 31 20 21 23 27 29 32 32 30 29 30 29 34 32 29 32 22 23 27 31 34 31 27
14 15 18 24 21 33 36 33 37 40 37 34 32 31 30 29 27 27 29 28 25 24 18 22 24 25 23 26 28 31 34 32 39 29 31 33 32 26 22 26 37 37 35
17 22 21 20 31 26 31 29 22 26 27 31 28 24 21 22 18 17 20 22 16 14 12 13 17 17 24 26 30 28 29 33 38 40 39 40 40 34 26 35 35 34 34
11 15 17 25 22 26 19 35 31 19 18 15 22 17 17 17 19 17 17 12 12 13 19 18 27 33 29 33 30 32 33 28 29 42 39 37 37 42 38 41 36 37 34
12 13 14 11 12 21 24 23 36 39 27 20 17 17 19 19 20 15 11 11 13 24 26 27 23 26 28 28 31 33 40 35 35 41 39 39 37 43 42 42 39 40 38
15 9 10 15 18 13 19 12 19 28 33 36 29 23 21 19 19 20 19 9 13 20 26 24 25 26 29 29 34 30 39 37 38 40 39 42 36 44 42 41 41 41 35
10 15 25 19 22 24 18 12 13 20 20 30 40 33 37 28 17 23 24 23 19 24 21 23 25 26 29 27 31 32 37 38 32 39 40 41 35 44 43 41 43 38 37
17 13 20 18 22 24 15 14 14 21 23 25 31 30 31 32 34 14 22 22 19 19 22 22 23 26 27 28 28 31 36 35 34 35 37 39 36 41 41 41 43 41 39
18 11 10 19 17 8 16 14 14 14 13 11 18 19 15 19 25 28 21 20 19 18 21 25 23 25 25 26 28 30 32 32 33 32 38 39 40 41 41 40 38 40 40
9 11 16 20 20 13 13 14 14 15 13 12 18 38 12 22 18 16 20 19 19 19 17 24 23 22 24 25 27 29 26 25 25 27 38 40 43 35 39 38 39 39 38
17 22 30 21 13 12 13 12 13 14 14 15 15 28 18 21 17 17 16 17 18 19 19 22 20 19 20 23 24 25 25 25 18 17 30 39 39 33 39 35 38 36 38
21 27 14 10 11 12 11 11 12 13 13 12 16 18 21 18 13 14 13 15 14 16 16 15 17 17 15 17 16 25 28 30 27 22 21 33 37 29 38 35 36 37 39
26 25 11 6 11 16 9 13 10 13 11 11 9 9 10 12 12 11 13 12 14 14 15 14 15 18 19 17 20 26 28 30 29 21 22 30 35 32 33 35 34 35 35
22 21 14 15 4 9 9 10 11 12 10 10 11 9 8 8 10 12 9 10 9 13 12 15 15 19 25 24 25 26 26 25 22 21 22 27 34 40 25 34 31 33 35
26 22 16 17 17 12 13 12 12 12 11 11 9 8 7 7 8 9 10 6 9 9 11 14 18 18 25 27 27 26 24 22 18 17 21 27 24 32 23 30 29 30 32
28 24 19 18 20 16 16 13 13 12 11 11 10 9 8 6 8 8 9 11 2 9 9 12 13 26 27 28 26 25 24 21 15 16 22 27 30 21 30 28 26 27 29
Wind_Direction_850mb
356 352 350 352 6 1 359 2 14 26 53 67 50 36 40 47 39 37 38 36 48 46 52 58 57 39 32 357 325 300 334 284 304 294 313 333 328 324 337 56 103 63 40
2 359 1 11 17 11 9 21 34 39 51 42 43 30 23 32 25 38 37 37 30 31 20 29 83 23 342 356 346 7 319 318 341 346 354 357 355 354 66 79 82 41 317
358 8 11 15 12 16 23 26 36 47 44 39 17 27 27 9 347 66 39 350 9 37 11 350 356 352 331 332 357 3 358 20 48 43 10 1 38 69 76 60 26 350 346
4 12 21 21 17 28 23 24 33 34 42 36 34 16 37 359 16 102 81 61 47 11 353 324 330 339 336 342 12 39 55 65 28 14 17 34 49 47 31 20 11 352 357
17 23 27 30 22 32 31 34 32 36 39 48 48 44 57 12 46 64 78 92 112 103 47 19 13 31 62 65 69 63 70 37 14 21 21 28 5 352 358 335 336 337 310
14 8 17 21 17 38 50 49 47 40 35 35 47 42 35 38 45 58 74 56 89 96 60 60 67 62 72 67 54 41 35 40 55 41 38 31 28 17 3 356 352 357 338
11 18 9 24 30 28 22 40 40 45 53 57 59 58 50 55 59 68 76 76 85 91 74 71 62 63 66 71 64 50 53 53 49 42 32 22 27 19 15 12 4 0 347
17 13 17 19 16 31 32 33 50 62 55 55 49 49 64 65 70 87 89 81 73 67 66 72 61 74 62 59 66 62 30 23 27 23 11 4 16 4 7 10 360 1 21
15 16 31 39 38 49 62 68 72 60 39 36 45 46 80 73 73 80 80 76 66 59 57 68 78 72 54 50 54 57 38 20 358 32 50 13 34 8 8 8 10 8 4
20 34 54 39 42 59 55 36 26 27 37 46 52 62 72 72 69 61 59 61 56 60 47 52 51 47 45 45 40 37 30 11 37 26 19 1 350 14 342 355 360 345 348
12 25 21 38 50 56 55 48 44 43 64 70 72 64 60 59 66 60 52 54 64 80 65 31 51 51 48 45 36 28 13 13 19 14 13 354 7 352 354 5 348 333 334
61 26 42 65 56 47 31 39 49 49 50 56 68 65 48 51 55 73 75 75 67 59 58 56 57 45 30 29 32 24 22 16 6 354 357 9 6 353 349 3 355 348 341
63 64 48 56 46 51 25 36 53 51 51 60 58 57 39 54 44 64 72 79 65 60 35 8 4 10 21 20 31 28 19 7 5 11 12 12 10 16 8 1 355 349 351
43 50 54 52 66 56 36 36 37 36 49 48 40 57 49 9 31 40 51 65 57 26 6 21 35 34 36 30 23 24 16 359 8 14 9 6 6 12 8 8 11 7 356
59 44 29 16 349 338 3 32 47 42 40 32 18 6 6 6 6 9 38 54 43 24 31 39 30 29 27 24 20 21 12 12 23 15 14 10 9 9 9 10 10 9 6
24 45 44 14 4 340 323 7 36 37 36 31 28 22 22 21 35 54 53 50 53 27 38 32 31 29 26 21 19 16 16 17 18 17 14 12 9 9 11 12 11 9 7
39 13 355 346 339 349 330 301 346 14 17 23 21 43 41 38 58 67 52 55 57 44 36 34 31 26 23 18 19 14 17 11 15 17 16 12 10 12 12 11 12 8 12
20 347 341 2 345 4 26 24 25 13 8 9 11 21 38 35 39 62 60 47 40 44 35 30 28 23 20 15 15 14 17 7 10 20 17 10 10 11 10 11 11 12 17
334 345 317 317 329 334 11 14 15 11 9 7 350 3 7 17 28 28 26 43 34 35 43 27 24 22 14 11 12 16 14 7 10 18 16 13 9 12 10 11 9 10 11
337 21 353 340 352 13 2 0 0 2 4 349 345 14 60 60 24 21 20 32 34 28 53 39 18 19 13 11 16 7 356 356 8 17 16 12 4 13 10 8 10 10 12
292 311 312 337 20 352 349 352 355 359 1 3 347 10 50 46 21 19 24 24 27 26 36 44 16 13 15 11 13 348 333 350 2 26 22 12 4 9 10 6 10 10 9
300 307 332 337 340 346 346 356 354 356 0 1 353 358 24 30 12 10 17 21 24 23 22 32 23 1 17 359 0 346 3 6 6 27 39 28 0 6 12 5 10 10 8
314 326 325 340 338 308 338 347 348 354 352 353 356 353 359 1 4 9 5 18 11 13 15 16 19 351 359 353 359 357 6 9 13 32 22 30 4 357 14 6 11 10 10
311 314 326 339 305 335 336 323 333 349 359 346 347 349 348 357 353 353 0 4 19 359 11 351 6 355 350 6 5 5 5 9 20 42 34 23 13 348 22 10 13 11 8
299 285 310 304 325 321 314 321 320 328 327 331 332 330 331 344 336 336 332 1 358 354 358 348 349 332 340 3 2 3 4 8 21 34 28 23 7 349 22 14 12 10 10
290 290 286 279 306 302 309 301 308 310 312 320 321 321 322 326 318 317 316 309 26 339 355 337 349 319 346 354 357 359 2 8 27 38 32 14 355 4 13 17 12 15 12